Total_Precipitation_Accumulation
1.74 2.22 2.74 3.23 3.93 4.88 5.87 6.33 6.22 5.63 5.09 4.65 4.29 4.07 3.73 3.45 3.33 3.02 2.66 2.61 2.61 2.66 2.95 2.67 2.96 2.96 3.05 3.04 2.96 3.09 3.06 2.82 2.97 3.44 3.38 3.00 2.76 2.75 2.62 2.49 2.58 2.39 2.41
1.80 2.32 2.91 3.29 3.63 4.19 5.00 5.40 5.15 4.57 3.91 3.62 3.55 3.52 3.48 3.10 2.86 2.78 2.75 2.45 2.47 2.55 2.62 2.78 2.61 2.64 2.86 2.77 2.72 3.02 3.00 2.68 2.76 3.25 3.47 3.32 3.34 3.07 2.38 2.34 2.48 2.46 2.49
1.60 2.33 2.88 3.15 3.42 3.63 3.65 3.85 3.81 3.39 3.08 2.99 2.97 3.01 3.21 2.99 2.68 2.59 2.55 2.32 2.24 2.22 2.36 2.44 2.54 2.64 2.54 2.65 2.73 2.79 2.91 2.85 2.69 2.75 3.29 3.25 3.12 3.01 2.71 2.33 2.25 2.45 2.68
1.45 2.19 2.50 2.62 2.67 2.74 2.54 2.59 2.75 2.66 2.66 2.58 2.59 2.50 2.38 2.38 2.29 2.28 2.26 2.24 2.12 2.06 1.99 2.11 2.35 2.50 2.45 2.70 2.45 2.57 2.83 2.93 2.68 2.67 2.73 2.73 2.80 2.97 2.83 2.46 2.17 2.20 2.33
1.15 1.49 1.62 1.76 1.81 1.85 1.87 2.08 2.42 2.52 2.46 2.40 2.52 2.55 2.26 2.13 2.06 2.11 2.24 2.20 2.11 2.01 1.91 1.96 2.17 2.31 2.38 2.49 2.52 2.81 2.76 2.67 2.62 2.59 2.66 2.74 2.74 2.61 2.67 2.64 2.35 2.19 2.03
0.86 1.04 1.14 1.24 1.30 1.34 1.45 1.69 2.14 2.35 2.24 2.21 2.25 2.24 2.20 2.18 2.10 2.04 2.10 2.07 2.02 2.09 2.17 2.12 2.18 2.16 2.19 2.27 2.40 2.64 2.64 2.59 2.63 2.50 2.41 2.62 2.72 2.68 2.74 2.57 2.30 2.13 1.89
0.77 0.91 1.10 1.17 1.12 1.09 1.20 1.38 1.69 1.83 1.81 1.90 2.03 2.11 2.18 2.15 2.01 1.94 1.90 1.86 1.71 1.81 2.06 2.20 2.24 2.24 2.27 2.22 2.33 2.41 2.41 2.47 2.62 2.52 2.38 2.35 2.34 2.48 2.65 2.64 2.26 2.06 1.86
0.66 0.74 0.89 0.91 0.91 0.97 1.04 1.19 1.34 1.41 1.49 1.61 1.82 1.99 2.01 1.98 1.93 2.06 1.92 1.76 1.57 1.53 1.74 2.00 2.10 2.06 2.00 2.01 2.44 2.24 2.19 2.36 2.47 2.39 2.68 2.53 2.29 2.45 2.59 2.65 2.63 2.42 2.29
0.51 0.57 0.68 0.74 0.78 0.94 1.04 1.08 1.18 1.28 1.37 1.46 1.71 1.88 1.88 1.81 1.85 1.94 1.85 1.66 1.68 1.58 1.65 1.70 1.96 2.06 1.98 2.02 2.26 2.22 2.18 2.32 2.30 2.45 2.71 2.66 2.53 2.53 2.53 2.71 2.94 3.09 2.87
0.47 0.55 0.61 0.69 0.69 0.72 0.88 0.98 1.05 1.22 1.39 1.47 1.51 1.54 1.69 1.65 1.62 1.57 1.55 1.63 1.66 1.63 1.69 1.74 1.74 1.85 1.99 2.09 2.24 2.11 2.07 2.20 2.29 2.46 2.62 2.62 2.53 2.57 2.48 2.60 2.86 3.08 3.10
0.56 0.57 0.64 0.65 0.63 0.63 0.78 0.91 1.00 1.12 1.23 1.26 1.28 1.37 1.46 1.43 1.38 1.37 1.36 1.47 1.51 1.56 1.59 1.63 1.68 1.68 1.79 2.07 2.37 2.28 2.27 2.30 2.32 2.34 2.52 2.61 2.78 2.82 2.69 2.67 2.67 2.81 2.99
0.73 0.71 0.74 0.71 0.71 0.73 0.77 0.87 0.87 0.93 1.01 1.08 1.14 1.17 1.29 1.29 1.28 1.31 1.44 1.52 1.51 1.45 1.38 1.45 1.51 1.46 1.58 1.85 2.16 2.33 2.46 2.57 2.52 2.54 2.72 2.76 2.78 2.75 2.64 2.66 2.64 2.64 2.87
0.72 0.88 0.88 0.74 0.74 0.76 0.79 0.81 0.80 0.85 0.91 0.97 1.00 1.05 1.19 1.34 1.41 1.45 1.49 1.58 1.60 1.55 1.56 1.58 1.55 1.66 1.74 1.77 1.94 2.15 2.27 2.40 2.46 2.58 2.61 2.58 2.70 2.62 2.60 2.49 2.45 2.48 2.65
0.72 0.88 0.98 0.77 0.69 0.70 0.72 0.74 0.74 0.73 0.75 0.89 1.03 1.09 1.27 1.48 1.57 1.58 1.60 1.61 1.63 1.62 1.67 1.67 1.69 1.79 1.82 1.78 1.87 2.04 2.18 2.26 2.32 2.45 2.54 2.59 2.58 2.60 2.73 2.60 2.59 2.74 2.85
0.75 0.75 0.79 0.72 0.69 0.70 0.71 0.72 0.76 0.78 0.80 0.98 1.14 1.31 1.48 1.55 1.61 1.67 1.69 1.75 1.78 1.69 1.79 1.84 1.81 1.80 1.71 1.63 1.88 2.03 2.05 2.23 2.30 2.31 2.30 2.39 2.62 2.67 2.68 2.47 2.59 2.81 2.81
0.80 0.89 0.89 0.85 0.89 0.85 0.84 0.86 0.88 0.95 1.10 1.25 1.42 1.51 1.59 1.64 1.59 1.59 1.62 1.78 1.85 1.91 2.03 2.06 2.05 1.96 1.70 1.90 1.99 2.01 2.08 2.19 2.23 2.26 2.22 2.15 2.17 2.24 2.35 2.33 2.34 2.47 2.59
0.95 1.06 1.12 1.09 1.10 1.05 1.06 1.17 1.16 1.25 1.43 1.58 1.75 1.78 1.74 1.76 1.74 1.79 1.82 1.84 1.98 2.11 2.13 2.10 2.12 2.08 2.09 2.11 1.88 1.80 1.73 1.79 1.86 1.88 1.91 1.74 1.65 1.95 2.03 2.19 2.15 2.02 2.05
0.99 1.11 1.19 1.18 1.13 1.15 1.22 1.45 1.58 1.60 1.72 1.83 1.93 2.02 2.05 2.11 2.17 2.27 2.28 2.32 2.37 2.42 2.35 2.26 2.28 2.34 2.32 2.35 2.02 1.88 1.72 1.68 1.67 1.66 1.64 1.67 1.67 1.73 1.91 2.00 1.96 1.85 1.79
1.11 1.27 1.26 1.23 1.24 1.41 1.47 1.55 1.67 1.71 1.87 2.06 2.20 2.28 2.34 2.37 2.41 2.44 2.57 2.71 2.85 2.89 2.78 2.72 2.75 2.75 2.83 2.85 2.48 2.29 2.00 1.88 1.77 1.78 1.84 1.85 1.70 1.77 1.80 1.83 1.79 1.74 1.75
1.26 1.41 1.44 1.39 1.46 1.72 1.79 1.89 1.96 2.02 2.09 2.19 2.37 2.56 2.68 2.71 2.70 2.78 2.93 3.10 3.26 3.29 3.28 3.28 3.29 3.23 3.21 3.19 2.78 2.59 2.30 2.21 2.12 2.13 2.01 1.91 1.71 1.65 1.60 1.60 1.66 1.58 1.56
1.24 1.40 1.45 1.44 1.51 1.71 1.91 2.19 2.34 2.39 2.39 2.45 2.58 2.71 2.82 2.95 3.01 3.11 3.21 3.38 3.51 3.48 3.42 3.37 3.35 3.25 3.18 3.08 2.74 2.56 2.33 2.34 2.34 2.22 2.09 1.95 1.81 1.60 1.55 1.49 1.48 1.51 1.60
1.27 1.35 1.47 1.54 1.64 1.77 2.02 2.25 2.43 2.59 2.69 2.69 2.82 2.87 2.88 2.79 2.79 3.04 3.25 3.47 3.69 3.65 3.57 3.60 3.47 3.31 3.19 2.92 2.68 2.47 2.31 2.37 2.40 2.31 2.19 2.08 1.95 1.69 1.61 1.46 1.43 1.50 1.47
1.24 1.26 1.34 1.46 1.56 1.66 1.87 2.26 2.40 2.46 2.54 2.65 2.71 2.82 2.86 2.90 2.97 3.17 3.34 3.54 3.65 3.60 3.49 3.49 3.41 3.22 3.03 2.89 2.63 2.40 2.30 2.32 2.24 2.30 2.38 2.20 2.04 1.82 1.67 1.63 1.61 1.52 1.40
1.18 1.24 1.32 1.42 1.50 1.46 1.61 1.83 2.06 2.20 2.24 2.28 2.33 2.34 2.46 2.63 2.88 3.20 3.29 3.35 3.41 3.43 3.40 3.30 3.18 3.14 3.11 3.04 2.78 2.46 2.21 2.17 2.19 2.22 2.29 2.16 2.00 1.78 1.64 1.66 1.58 1.41 1.38
1.17 1.23 1.38 1.38 1.41 1.47 1.51 1.56 1.63 1.84 2.00 2.00 2.01 2.12 2.24 2.43 2.65 2.88 3.04 3.02 3.06 3.27 3.17 2.94 2.77 2.67 2.59 2.67 2.58 2.30 2.15 2.10 2.18 2.24 2.29 2.21 2.09 1.93 1.76 1.68 1.68 1.66 1.61
1.18 1.23 1.32 1.31 1.30 1.40 1.47 1.50 1.60 1.77 1.84 1.79 1.80 1.85 1.91 2.07 2.25 2.41 2.55 2.58 2.36 2.43 2.34 2.20 2.08 1.97 1.93 1.93 1.80 1.65 1.61 1.70 1.88 1.97 2.13 2.16 2.06 1.97 1.90 1.86 1.83 1.79 1.70